EW5225 Pinellas Park FL US current weather conditions

sailwx.info

Wind from 322 at 2 knots gusting 7

Air temperature 16.7° C
Dewpoint 13.4° C

Last reported at 2019-Mar-22 06:03 UTC.
Time now 2019-Mar-22 06:43 UTC

Location: N 27°51' W 082°40'.
View on Google Maps.

See reports from other nearby stations

  
Tides and Currents Weather Stations Pressure Air Temp Water Temp Dewpoint Dewpoint Depression Visibility Wind Speed Wind Dir Waves Ship Positions
date/time (UTC)wind fromknots sea level pressurealtimeterstation pressurevisibilityair tempwater tempwave heightnotes
2019-Mar-22 06:03 322 2 gusting 7 16.7
2019-Mar-22 05:58 325 3 gusting 7 16.7
2019-Mar-22 05:53 009 3 gusting 9 16.7
2019-Mar-22 05:48 355 2 gusting 5 16.7
2019-Mar-22 05:43 333 1 gusting 5 16.7
2019-Mar-22 05:38 351 1 gusting 7 16.7
2019-Mar-22 05:33 057 3 gusting 7 16.7
2019-Mar-22 05:28 355 2 gusting 7 16.7
2019-Mar-22 05:23 328 3 gusting 7 16.7
2019-Mar-22 05:18 360 3 gusting 7 16.7
2019-Mar-22 05:13 005 3 gusting 6 16.7
2019-Mar-22 05:08 287 3 gusting 7 16.7
2019-Mar-22 05:03 339 3 gusting 8 16.7
2019-Mar-22 04:58 343 2 gusting 5 16.7
2019-Mar-22 04:53 347 2 gusting 7 16.7
2019-Mar-22 04:48 355 2 gusting 7 16.7
2019-Mar-22 04:43 320 5 gusting 7 16.7
2019-Mar-22 04:38 318 2 gusting 9 16.7
2019-Mar-22 04:33 302 5 gusting 9 16.7
2019-Mar-22 04:28 317 1 gusting 8 16.7
2019-Mar-22 04:23 017 4 gusting 11 16.7
2019-Mar-22 04:18 328 5 gusting 10 16.7
2019-Mar-22 04:13 290 3 gusting 7 16.7
2019-Mar-22 04:08 335 4 gusting 8 17.2
2019-Mar-22 04:03 015 4 gusting 10 17.2
2019-Mar-22 03:58 314 3 gusting 10 17.2
2019-Mar-22 03:53 306 3 gusting 10 17.2
2019-Mar-22 03:49 261 4 gusting 11 17.2
2019-Mar-22 03:43 299 5 gusting 11 17.2
2019-Mar-22 03:38 254 2 gusting 11 17.2
2019-Mar-22 03:28 299 6 gusting 13 17.2
2019-Mar-22 03:18 333 3 gusting 9 17.2
2019-Mar-22 03:13 306 3 gusting 9 17.2
2019-Mar-22 03:08 005 4 gusting 10 17.2
2019-Mar-22 03:03 018 3 gusting 13 17.2
2019-Mar-22 02:59 321 4 gusting 13 17.2
2019-Mar-22 02:53 339 3 gusting 11 17.2
2019-Mar-22 02:48 344 3 gusting 8 17.2
2019-Mar-22 02:43 009 3 gusting 8 17.2
2019-Mar-22 02:38 331 4 gusting 8 17.8
2019-Mar-22 02:33 275 2 gusting 7 17.8
2019-Mar-22 02:28 258 3 gusting 8 17.8
2019-Mar-22 02:23 243 3 gusting 8 17.8
2019-Mar-22 02:19 310 2 gusting 11 17.8
2019-Mar-22 02:13 323 5 gusting 11 17.8
2019-Mar-22 02:08 286 3 gusting 9 17.8
2019-Mar-22 02:04 302 2 gusting 8 17.8
2019-Mar-22 01:58 343 1 gusting 11 17.8
2019-Mar-22 01:53 333 4 gusting 11 17.8
2019-Mar-22 01:48 292 4 gusting 9 17.8
2019-Mar-22 01:43 355 2 gusting 9 18.3
2019-Mar-22 01:33 009 2 gusting 8 18.3
2019-Mar-22 01:28 346 3 gusting 9 18.3
2019-Mar-22 01:23 322 3 gusting 8 18.3
2019-Mar-22 01:18 273 2 gusting 7 18.3
2019-Mar-22 01:08 331 1 gusting 6 18.3
2019-Mar-22 01:03 313 3 gusting 8 18.3
2019-Mar-22 00:58 309 2 gusting 10 18.3
2019-Mar-22 00:53 315 3 gusting 7 18.3
2019-Mar-22 00:49 324 3 gusting 8 18.3
2019-Mar-22 00:43 261 3 gusting 8 18.3
2019-Mar-22 00:38 291 2 gusting 8 18.3
2019-Mar-22 00:34 287 2 gusting 8 18.3
2019-Mar-22 00:28 311 2 gusting 9 18.3
2019-Mar-22 00:23 265 2 gusting 9 18.3
2019-Mar-22 00:18 257 2 gusting 6 18.9
2019-Mar-22 00:13 336 3 gusting 7 18.9
2019-Mar-22 00:03 332 1 gusting 10 18.9
2019-Mar-21 23:59 346 2 gusting 10 18.9
2019-Mar-21 23:53 009 2 gusting 9 18.9
2019-Mar-21 23:48 329 4 gusting 11 18.9
2019-Mar-21 23:44 318 2 gusting 11 18.9
2019-Mar-21 23:38 290 2 gusting 8 18.9
2019-Mar-21 23:33 300 2 gusting 8 19.4
2019-Mar-21 23:28 332 1 gusting 6 19.4
2019-Mar-21 23:23 258 1 gusting 9 19.4
2019-Mar-21 23:18 315 2 gusting 9 19.4
2019-Mar-21 23:13 340 4 gusting 8 19.4
2019-Mar-21 23:08 263 3 gusting 8 20.0
2019-Mar-21 23:03 344 3 gusting 10 20.0
2019-Mar-21 22:58 216 4 gusting 10 20.0
2019-Mar-21 22:48 058 1 gusting 10 20.6
2019-Mar-21 22:43 288 2 gusting 8 20.6
2019-Mar-21 22:38 288 4 gusting 8 20.6
2019-Mar-21 22:33 157 2 gusting 9 20.6
2019-Mar-21 22:28 260 4 gusting 9 20.6
2019-Mar-21 22:24 335 3 gusting 12 20.6
2019-Mar-21 22:18 010 6 gusting 12 20.6
2019-Mar-21 22:13 287 5 gusting 8 21.1
2019-Mar-21 22:08 316 4 gusting 11 21.1
2019-Mar-21 22:03 294 4 gusting 11 20.6
2019-Mar-21 21:53 296 6 gusting 15 21.1
2019-Mar-21 21:43 255 6 gusting 11 21.1
2019-Mar-21 21:33 334 2 gusting 12 21.1
2019-Mar-21 21:23 298 5 gusting 14 21.1
2019-Mar-21 21:19 310 6 gusting 14 21.1
2019-Mar-21 21:13 005 4 gusting 13 21.7
2019-Mar-21 21:08 288 4 gusting 13 21.7
2019-Mar-21 21:04 332 3 gusting 13 21.7
2019-Mar-21 20:58 326 3 gusting 13 21.7
2019-Mar-21 20:53 355 4 gusting 11 21.7
2019-Mar-21 20:49 327 3 gusting 13 21.7
2019-Mar-21 20:43 338 6 gusting 14 21.7
2019-Mar-21 20:38 023 6 gusting 14 22.2
2019-Mar-21 20:33 336 5 gusting 9 22.2
2019-Mar-21 20:28 301 4 gusting 13 22.2
2019-Mar-21 20:23 020 6 gusting 13 22.2
2019-Mar-21 20:13 280 6 gusting 11 22.2
2019-Mar-21 20:08 334 4 gusting 12 22.2
2019-Mar-21 20:03 268 5 gusting 12 21.7
2019-Mar-21 19:58 336 4 gusting 14 21.7
2019-Mar-21 19:53 355 8 gusting 15 21.7
2019-Mar-21 19:48 334 9 gusting 15 21.7
2019-Mar-21 19:43 318 6 gusting 11 21.7
2019-Mar-21 19:38 016 4 gusting 15 21.7
2019-Mar-21 19:33 291 5 gusting 16 21.7
2019-Mar-21 19:28 340 6 gusting 16 21.7
2019-Mar-21 19:24 011 8 gusting 15 21.7
2019-Mar-21 19:18 319 6 gusting 15 21.7
2019-Mar-21 19:13 360 4 gusting 13 22.2
2019-Mar-21 19:03 360 4 gusting 12 22.2
2019-Mar-21 18:59 287 4 gusting 13 21.7
2019-Mar-21 18:53 302 6 gusting 14 21.7
2019-Mar-21 18:48 306 8 gusting 14 21.1
2019-Mar-21 18:38 338 8 gusting 16 21.7
2019-Mar-21 18:34 289 7 gusting 18 21.7
2019-Mar-21 18:28 327 7 gusting 18 21.7
2019-Mar-21 18:23 313 5 gusting 12 21.7
2019-Mar-21 18:19 311 6 gusting 12 21.7
2019-Mar-21 18:13 309 5 gusting 15 21.7
2019-Mar-21 18:03 330 8 gusting 13 21.1
2019-Mar-21 17:58 338 9 gusting 14 21.1
2019-Mar-21 17:54 268 5 gusting 14 21.1
2019-Mar-21 17:48 242 6 gusting 16 21.7
2019-Mar-21 17:43 269 8 gusting 16 21.1
2019-Mar-21 17:39 318 6 gusting 11 21.1
2019-Mar-21 17:33 293 4 gusting 15 21.1
2019-Mar-21 17:28 336 9 gusting 15 21.1
2019-Mar-21 17:23 271 6 gusting 13 21.1
2019-Mar-21 17:18 342 6 gusting 13 21.1
2019-Mar-21 17:14 355 7 gusting 16 21.1
2019-Mar-21 17:08 265 3 gusting 12 21.7
2019-Mar-21 17:03 343 6 gusting 15 21.7
2019-Mar-21 16:59 340 4 gusting 15 21.7
2019-Mar-21 16:53 355 3 gusting 12 21.7
2019-Mar-21 16:48 300 4 gusting 12 21.7
2019-Mar-21 16:43 355 6 gusting 11 21.7
2019-Mar-21 16:38 005 4 gusting 11 21.1
2019-Mar-21 16:33 286 4 gusting 11 21.7
2019-Mar-21 16:29 325 5 gusting 11 21.7
2019-Mar-21 16:23 005 2 gusting 13 21.7
2019-Mar-21 16:18 315 6 gusting 13 21.7
2019-Mar-21 16:13 299 3 gusting 13 21.7
2019-Mar-21 16:08 323 3 gusting 11 21.7
2019-Mar-21 16:04 298 4 gusting 12 21.1
2019-Mar-21 15:58 344 2 gusting 7 21.1
2019-Mar-21 15:53 250 2 gusting 10 21.1
2019-Mar-21 15:48 306 3 gusting 10 21.1
2019-Mar-21 15:43 360 5 gusting 11 20.6
2019-Mar-21 15:38 338 6 gusting 11 21.1
2019-Mar-21 15:33 304 6 gusting 10 21.1
2019-Mar-21 15:28 011 3 gusting 8 21.1
2019-Mar-21 15:23 242 2 gusting 8 21.1
2019-Mar-21 15:18 271 1 gusting 9 21.1
2019-Mar-21 15:13 035 3 gusting 9 21.1
2019-Mar-21 15:08 306 3 gusting 7 21.1
2019-Mar-21 15:03 336 3 gusting 6 20.6
2019-Mar-21 14:53 355 2 gusting 7 20.0
2019-Mar-21 14:48 338 4 gusting 7 20.0
2019-Mar-21 14:44 053 1 gusting 7 20.0
2019-Mar-21 14:38 068 3 gusting 10 20.0
2019-Mar-21 14:33 005 5 gusting 10 20.0
2019-Mar-21 14:29 076 5 gusting 8 19.4
2019-Mar-21 14:23 355 4 gusting 9 19.4
2019-Mar-21 14:18 348 1 gusting 9 18.9
2019-Mar-21 14:08 355 4 gusting 11 18.3
2019-Mar-21 14:03 070 3 gusting 10 18.3
2019-Mar-21 13:53 335 4 gusting 8 18.3
2019-Mar-21 13:48 360 3 gusting 7 17.8
2019-Mar-21 13:44 344 2 gusting 11 17.8
2019-Mar-21 13:38 351 5 gusting 11 17.8
2019-Mar-21 13:33 024 2 gusting 7 17.8
2019-Mar-21 13:28 344 1 gusting 8 17.2
2019-Mar-21 13:23 360 3 gusting 8 17.2
2019-Mar-21 13:13 332 2 gusting 7 17.2
2019-Mar-21 13:08 348 1 gusting 4 16.7
2019-Mar-21 13:03 341 1 gusting 5 16.7
2019-Mar-21 12:58 332 1 gusting 5 16.7
2019-Mar-21 12:54 341 1 gusting 5 16.7
2019-Mar-21 12:48 321 0 gusting 6 16.1
2019-Mar-21 12:43 345 2 gusting 6 16.1
2019-Mar-21 12:39 346 1 gusting 5 16.1
2019-Mar-21 12:33 005 1 gusting 5 15.6
2019-Mar-21 12:28 330 1 gusting 3 15.6
2019-Mar-21 12:23 336 0 gusting 1 15.0
2019-Mar-21 12:18 336 0 gusting 1 15.0
2019-Mar-21 12:14 336 15.0
2019-Mar-21 12:08 336 0 gusting 1 15.0
2019-Mar-21 12:03 336 15.0
2019-Mar-21 11:59 336 0 gusting 1 14.4
2019-Mar-21 11:53 336 14.4
2019-Mar-21 11:48 336 0 gusting 1 14.4
2019-Mar-21 11:44 336 14.4
2019-Mar-21 11:38 336 0 gusting 1 14.4
2019-Mar-21 11:33 336 0 gusting 1 14.4
2019-Mar-21 11:28 336 14.4
2019-Mar-21 11:23 336 14.4
2019-Mar-21 11:13 336 15.0
2019-Mar-21 11:09 336 15.0
2019-Mar-21 11:03 336 0 gusting 1 15.0
2019-Mar-21 10:58 336 0 gusting 1 15.0
2019-Mar-21 10:53 336 15.0
2019-Mar-21 10:48 336 15.0
2019-Mar-21 10:43 336 0 gusting 2 15.0
2019-Mar-21 10:33 348 0 gusting 2 15.0
2019-Mar-21 10:28 327 0 gusting 5 15.0
2019-Mar-21 10:23 348 1 gusting 5 14.4
2019-Mar-21 10:18 328 1 gusting 4 14.4
2019-Mar-21 10:13 325 0 gusting 4 14.4
2019-Mar-21 10:08 331 0 gusting 3 14.4
2019-Mar-21 10:03 331 1 gusting 3 15.0
2019-Mar-21 09:53 335 1 gusting 2 15.0
2019-Mar-21 09:48 335 0 gusting 1 15.0
2019-Mar-21 09:43 335 15.0
2019-Mar-21 09:38 335 15.0
2019-Mar-21 09:28 335 15.0
2019-Mar-21 09:23 335 15.0
2019-Mar-21 09:18 335 15.0
2019-Mar-21 09:13 335 0 gusting 3 15.0
2019-Mar-21 09:03 335 0 gusting 1 15.0
2019-Mar-21 08:58 335 0 gusting 1 15.0
2019-Mar-21 08:53 335 15.0
2019-Mar-21 08:48 335 0 gusting 1 15.0
2019-Mar-21 08:43 335 15.0
2019-Mar-21 08:38 335 1 gusting 2 15.0
2019-Mar-21 08:33 335 15.0
2019-Mar-21 08:29 335 15.6
2019-Mar-21 08:23 335 15.6
2019-Mar-21 08:18 335 15.6
2019-Mar-21 08:13 335 15.6
2019-Mar-21 08:08 335 15.6
2019-Mar-21 08:03 335 15.6
2019-Mar-21 07:59 335 15.6
2019-Mar-21 07:53 335 15.6
2019-Mar-21 07:48 335 15.6
2019-Mar-21 07:43 335 16.1
2019-Mar-21 07:38 335 16.1
2019-Mar-21 07:33 335 0 gusting 1 16.1
2019-Mar-21 07:29 335 0 gusting 0 16.1
2019-Mar-21 07:23 335 16.1
2019-Mar-21 07:18 335 16.1
2019-Mar-21 07:08 335 16.7
2019-Mar-21 07:03 335 16.7
2019-Mar-21 06:58 335 16.7
2019-Mar-21 06:53 335 0 gusting 1 16.7
2019-Mar-21 06:43 335 16.7
2019-Mar-21 06:38 335 1 gusting 3 16.7
2019-Mar-21 06:34 335 0 gusting 2 16.7
2019-Mar-21 06:28 335 16.7
2019-Mar-21 06:23 335 16.7
2019-Mar-21 06:18 335 0 gusting 1 16.7
2019-Mar-21 06:13 335 0 gusting 1 16.7
2019-Mar-21 06:08 335 0 gusting 1 16.7
2019-Mar-21 06:03 335 0 gusting 2 16.7
2019-Mar-21 05:58 335 0 gusting 2 16.7
2019-Mar-21 05:53 335 0 gusting 2 16.7
2019-Mar-21 05:48 335 1 gusting 2 17.2
2019-Mar-21 05:43 336 17.2
2019-Mar-21 05:38 336 17.2
2019-Mar-21 05:33 336 1 gusting 2 17.2
2019-Mar-21 05:28 005 17.2
2019-Mar-21 05:23 005 17.2
2019-Mar-21 05:18 005 17.2
2019-Mar-21 05:13 005 0 gusting 2 17.2
2019-Mar-21 05:08 350 17.2
2019-Mar-21 05:03 350 17.2
2019-Mar-21 04:58 350 17.8
2019-Mar-21 04:53 350 17.8
2019-Mar-21 04:48 350 17.8
2019-Mar-21 04:43 350 17.8
2019-Mar-21 04:38 350 0 gusting 1 18.3
2019-Mar-21 04:33 350 18.3
2019-Mar-21 04:28 350 0 gusting 2 18.3
2019-Mar-21 04:23 350 0 gusting 2 18.3
2019-Mar-21 04:18 350 0 gusting 1 18.3
2019-Mar-21 04:13 350 18.3
2019-Mar-21 04:08 350 1 gusting 4 18.3
2019-Mar-21 04:03 005 0 gusting 3 18.3
2019-Mar-21 03:59 013 0 gusting 3 18.3
2019-Mar-21 03:53 011 0 gusting 3 18.3
2019-Mar-21 03:48 346 1 gusting 5 18.3
2019-Mar-21 03:38 013 18.9
2019-Mar-21 03:33 343 1 gusting 3 18.9
2019-Mar-21 03:28 005 1 gusting 4 18.9
2019-Mar-21 03:23 344 2 gusting 6 18.9
2019-Mar-21 03:19 069 1 gusting 6 18.9
2019-Mar-21 03:13 355 1 gusting 4 18.9
2019-Mar-21 03:08 313 1 gusting 5 18.9
2019-Mar-21 02:58 039 0 gusting 4 18.9
2019-Mar-21 02:54 005 0 gusting 9 18.9
2019-Mar-21 02:48 360 2 gusting 9 18.9
2019-Mar-21 02:43 360 3 gusting 8 18.9
2019-Mar-21 02:39 355 3 gusting 8 18.9
2019-Mar-21 02:33 360 2 gusting 6 18.9
2019-Mar-21 02:28 342 2 gusting 7 18.9
2019-Mar-21 02:18 346 2 gusting 8 18.9
2019-Mar-21 02:14 320 2 gusting 9 18.9
2019-Mar-21 02:08 345 3 gusting 9 18.9
2019-Mar-21 02:03 355 2 gusting 7 18.9
2019-Mar-21 01:59 023 2 gusting 8 18.9
2019-Mar-21 01:53 029 4 gusting 8 18.9
2019-Mar-21 01:48 022 2 gusting 5 18.9
2019-Mar-21 01:44 061 1 gusting 7 18.9
2019-Mar-21 01:38 346 1 gusting 8 18.9
2019-Mar-21 01:33 360 3 gusting 8 18.9
2019-Mar-21 01:29 355 1 gusting 5 18.3
2019-Mar-21 01:23 345 2 gusting 6 18.3
2019-Mar-21 01:18 019 3 gusting 7 18.3
2019-Mar-21 01:14 005 2 gusting 7 18.3
2019-Mar-21 01:08 355 1 gusting 5 18.9
2019-Mar-21 01:03 005 1 gusting 6 18.9
2019-Mar-21 00:59 339 1 gusting 6 18.9
2019-Mar-21 00:53 005 2 gusting 5 18.9
2019-Mar-21 00:48 344 2 gusting 7 18.9
2019-Mar-21 00:44 321 2 gusting 7 18.9
2019-Mar-21 00:38 342 1 gusting 7 18.9
2019-Mar-21 00:33 340 2 gusting 4 19.4
2019-Mar-21 00:23 325 1 gusting 4 19.4
2019-Mar-21 00:18 338 2 gusting 5 20.0
2019-Mar-21 00:08 355 2 gusting 6 20.0
2019-Mar-21 00:03 338 1 gusting 6 20.0
2019-Mar-20 23:59 360 2 gusting 8 20.0
2019-Mar-20 23:54 351 1 gusting 8 20.0
2019-Mar-20 23:48 009 3 gusting 7 20.6
2019-Mar-20 23:43 005 2 gusting 7 20.6
2019-Mar-20 23:39 355 3 gusting 7 20.6
2019-Mar-20 23:33 021 3 gusting 7 20.6
2019-Mar-20 23:28 340 3 gusting 9 21.1
2019-Mar-20 23:24 326 4 gusting 9 21.1
2019-Mar-20 23:18 049 3 gusting 7 21.1
2019-Mar-20 23:13 333 3 gusting 10 21.7
2019-Mar-20 23:08 005 4 gusting 10 21.7
2019-Mar-20 23:03 355 2 gusting 7 21.7
2019-Mar-20 22:53 355 4 gusting 9 22.2
2019-Mar-20 22:48 005 3 gusting 8 22.2
2019-Mar-20 22:43 055 5 gusting 9 22.8
2019-Mar-20 22:38 355 3 gusting 9 22.8
2019-Mar-20 22:33 333 2 gusting 7 23.3
2019-Mar-20 22:28 331 4 gusting 9 23.3
2019-Mar-20 22:23 355 4 gusting 9 23.3
2019-Mar-20 22:18 355 4 gusting 9 23.9
2019-Mar-20 22:14 331 3 gusting 10 23.9
2019-Mar-20 22:08 344 4 gusting 10 23.9
2019-Mar-20 22:03 018 2 gusting 9 24.4
2019-Mar-20 21:58 307 4 gusting 9 24.4
2019-Mar-20 21:53 360 3 gusting 8 24.4
2019-Mar-20 21:48 360 1 gusting 8 24.4
2019-Mar-20 21:38 031 0 gusting 7 24.4
2019-Mar-20 21:33 005 2 gusting 5 24.4
2019-Mar-20 21:28 331 1 gusting 6 23.9
2019-Mar-20 21:23 065 2 gusting 6 23.9
2019-Mar-20 21:18 005 2 gusting 6 23.9
2019-Mar-20 21:14 031 2 gusting 7 23.9
2019-Mar-20 21:08 079 3 gusting 8 24.4
2019-Mar-20 21:03 052 1 gusting 8 24.4
2019-Mar-20 20:58 055 1 gusting 5 24.4
2019-Mar-20 20:48 045 2 gusting 7 24.4
2019-Mar-20 20:43 355 1 gusting 6 24.4
2019-Mar-20 20:38 028 1 gusting 9 24.4
2019-Mar-20 20:33 355 2 gusting 9 24.4
2019-Mar-20 20:23 005 2 gusting 8 24.4
2019-Mar-20 20:19 035 4 gusting 9 24.4
2019-Mar-20 20:13 075 3 gusting 7 24.4
2019-Mar-20 20:08 020 3 gusting 7 25.0
2019-Mar-20 20:04 044 1 gusting 6 24.4
2019-Mar-20 19:58 034 2 gusting 8 23.9
2019-Mar-20 19:53 072 5 gusting 8 24.4
2019-Mar-20 19:43 082 2 gusting 8 24.4
2019-Mar-20 19:33 080 3 gusting 9 24.4
2019-Mar-20 19:28 015 5 gusting 10 24.4
2019-Mar-20 19:23 016 3 gusting 10 25.0
2019-Mar-20 19:18 081 4 gusting 8 25.0
2019-Mar-20 19:08 082 5 gusting 10 24.4
2019-Mar-20 19:03 360 4 gusting 7 24.4
2019-Mar-20 18:58 009 3 gusting 7 23.9
2019-Mar-20 18:53 052 4 gusting 7 24.4
2019-Mar-20 18:48 005 3 gusting 9 23.9
2019-Mar-20 18:43 081 5 gusting 11 23.9
2019-Mar-20 18:38 043 5 gusting 11 23.3
2019-Mar-20 18:33 057 4 gusting 9 23.9
2019-Mar-20 18:28 338 4 gusting 9 23.9
2019-Mar-20 18:23 017 2 gusting 10 23.9
2019-Mar-20 18:18 036 4 gusting 11 23.3
2019-Mar-20 18:13 005 6 gusting 11 23.3
2019-Mar-20 18:08 041 3 gusting 12 23.3
2019-Mar-20 18:04 324 4 gusting 12 23.3
2019-Mar-20 17:58 053 3 gusting 11 23.3
2019-Mar-20 17:53 355 3 gusting 11 23.3
2019-Mar-20 17:48 014 3 gusting 10 23.3
2019-Mar-20 17:43 319 3 gusting 10 22.8
2019-Mar-20 17:38 038 3 gusting 14 22.8
2019-Mar-20 17:34 095 5 gusting 14 22.8
2019-Mar-20 17:28 014 6 gusting 13 22.8
2019-Mar-20 17:23 071 2 gusting 10 23.3
2019-Mar-20 17:19 355 3 gusting 6 23.3
2019-Mar-20 17:13 360 2 gusting 7 22.8
2019-Mar-20 17:08 074 2 gusting 8 22.8
2019-Mar-20 17:03 355 3 gusting 11 22.8
2019-Mar-20 16:58 355 2 gusting 11 22.8
2019-Mar-20 16:54 005 2 gusting 8 22.8
2019-Mar-20 16:48 024 2 gusting 8 22.2
2019-Mar-20 16:43 005 3 gusting 8 22.2
2019-Mar-20 16:33 063 2 gusting 11 21.7
2019-Mar-20 16:23 076 3 gusting 11 22.2
2019-Mar-20 16:18 036 2 gusting 10 21.7
2019-Mar-20 16:14 027 2 gusting 9 21.7
2019-Mar-20 16:08 061 2 gusting 9 21.1
2019-Mar-20 16:03 115 2 gusting 9 20.6
2019-Mar-20 15:58 024 3 gusting 10 20.6
2019-Mar-20 15:53 063 4 gusting 10 20.6
2019-Mar-20 15:48 022 3 gusting 9 20.6
2019-Mar-20 15:43 051 2 gusting 9 20.6
2019-Mar-20 15:38 036 3 gusting 9 20.6
2019-Mar-20 15:28 005 3 gusting 9 20.0
2019-Mar-20 15:24 028 3 gusting 10 20.0
2019-Mar-20 15:18 031 4 gusting 10 20.0
2019-Mar-20 15:14 300 3 gusting 12 19.4
2019-Mar-20 15:08 040 5 gusting 12 19.4
2019-Mar-20 15:03 065 5 gusting 12 20.0
2019-Mar-20 14:59 047 1 gusting 8 19.4
2019-Mar-20 14:53 051 3 gusting 13 18.9
2019-Mar-20 14:48 063 6 gusting 13 18.9
2019-Mar-20 14:44 070 5 gusting 12 18.3
2019-Mar-20 14:38 070 4 gusting 12 18.3
2019-Mar-20 14:33 057 6 gusting 11 18.3
2019-Mar-20 14:29 012 1 gusting 11 18.3
2019-Mar-20 14:23 022 5 gusting 13 17.8
2019-Mar-20 14:18 077 6 gusting 13 17.8
2019-Mar-20 14:13 047 4 gusting 13 17.2
2019-Mar-20 14:08 042 6 gusting 13 17.2
2019-Mar-20 14:03 077 3 gusting 10 16.7
2019-Mar-20 13:58 110 4 gusting 13 16.7
2019-Mar-20 13:53 028 4 gusting 13 16.7
2019-Mar-20 13:48 055 4 gusting 10 16.1
2019-Mar-20 13:43 040 3 gusting 10 16.1
2019-Mar-20 13:38 059 3 gusting 8 16.1
2019-Mar-20 13:33 038 4 gusting 8 16.1
2019-Mar-20 13:28 080 2 gusting 12 16.1
2019-Mar-20 13:24 042 2 gusting 12 16.1
2019-Mar-20 13:18 036 1 gusting 12 16.1
2019-Mar-20 13:13 110 4 gusting 12 16.1
2019-Mar-20 13:09 005 4 gusting 11 16.1
2019-Mar-20 13:03 098 5 gusting 13 16.1
2019-Mar-20 12:58 038 3 gusting 10 16.1
2019-Mar-20 12:53 017 4 gusting 10 16.1
2019-Mar-20 12:48 101 1 gusting 12 16.1
2019-Mar-20 12:43 069 5 gusting 12 16.1
2019-Mar-20 12:38 360 4 gusting 11 16.1
2019-Mar-20 12:34 119 4 gusting 11 15.6
2019-Mar-20 12:28 054 4 gusting 12 15.6
2019-Mar-20 12:23 005 4 gusting 12 15.6
2019-Mar-20 12:18 039 4 gusting 12 15.6
2019-Mar-20 12:13 028 3 gusting 9 15.6
2019-Mar-20 12:08 049 2 gusting 13 15.6
2019-Mar-20 11:58 026 4 gusting 11 15.6
2019-Mar-20 11:54 073 3 gusting 10 15.6
2019-Mar-20 11:48 074 2 gusting 12 15.6
2019-Mar-20 11:43 051 4 gusting 12 15.6
2019-Mar-20 11:33 032 6 gusting 11 15.6
2019-Mar-20 11:28 064 3 gusting 9 15.6
2019-Mar-20 11:23 071 3 gusting 11 15.6
2019-Mar-20 11:18 061 4 gusting 12 15.6
2019-Mar-20 11:08 060 4 gusting 11 15.6
2019-Mar-20 10:58 044 6 gusting 14 15.6
2019-Mar-20 10:48 036 3 gusting 13 15.6
2019-Mar-20 10:43 080 6 gusting 13 15.6
2019-Mar-20 10:38 009 4 gusting 15 15.6
2019-Mar-20 10:33 065 4 gusting 15 15.6
2019-Mar-20 10:28 060 6 gusting 12 15.6
2019-Mar-20 10:23 059 1 gusting 12 15.6
2019-Mar-20 10:19 062 3 gusting 14 15.6
2019-Mar-20 10:13 083 6 gusting 14 15.6
2019-Mar-20 10:08 061 3 gusting 12 15.6
2019-Mar-20 09:58 034 3 gusting 6 15.0
2019-Mar-20 09:53 009 2 gusting 11 15.0
2019-Mar-20 09:49 047 4 gusting 11 15.0
2019-Mar-20 09:43 025 2 gusting 10 15.6
2019-Mar-20 09:38 043 3 gusting 11 15.6
2019-Mar-20 09:33 347 3 gusting 13 15.6
2019-Mar-20 09:28 093 4 gusting 13 15.6
2019-Mar-20 09:24 360 4 gusting 10 15.6
2019-Mar-20 09:18 360 4 gusting 12 15.6
2019-Mar-20 09:13 092 5 gusting 12 15.6
2019-Mar-20 09:03 005 2 gusting 13 15.6
2019-Mar-20 08:53 013 5 gusting 13 15.6
2019-Mar-20 08:48 009 6 gusting 13 15.6
2019-Mar-20 08:38 031 5 gusting 13 15.6
2019-Mar-20 08:28 028 4 gusting 10 15.6
2019-Mar-20 08:23 084 3 gusting 11 15.6
2019-Mar-20 08:18 066 6 gusting 13 15.6
2019-Mar-20 08:13 055 4 gusting 13 15.6
2019-Mar-20 08:09 065 4 gusting 10 15.0
2019-Mar-20 08:03 023 6 gusting 12 15.0
2019-Mar-20 07:58 068 2 gusting 13 15.0
2019-Mar-20 07:54 099 5 gusting 13 15.0
2019-Mar-20 07:48 040 6 gusting 13 15.0
2019-Mar-20 07:43 082 3 gusting 12 15.0
2019-Mar-20 07:39 020 5 gusting 12 15.0
2019-Mar-20 07:33 069 2 gusting 11 15.0
2019-Mar-20 07:28 018 3 gusting 11 15.0
2019-Mar-20 07:23 058 1 gusting 11 15.0
2019-Mar-20 07:18 103 3 gusting 11 15.0
2019-Mar-20 07:14 045 4 gusting 11 15.0
2019-Mar-20 07:08 032 3 gusting 11 15.0
2019-Mar-20 07:03 062 5 gusting 10 15.0
2019-Mar-20 06:59 055 3 gusting 9 15.0
2019-Mar-20 06:53 297 4 gusting 9 15.6
2019-Mar-20 06:48 069 4 gusting 10 15.6
2019-Mar-20 06:38 009 6 gusting 13 15.6
2019-Mar-20 06:33 051 4 gusting 13 15.6
2019-Mar-20 06:29 050 3 gusting 15 15.6
2019-Mar-20 06:23 111 6 gusting 15 15.6
2019-Mar-20 06:18 071 5 gusting 13 15.6
2019-Mar-20 06:14 059 5 gusting 10 15.6
2019-Mar-20 06:08 028 2 gusting 12 15.6
2019-Mar-20 06:03 075 4 gusting 12 15.6